Tracking 29892 objects as of 21-Nov-2024
HD Live streaming from Space Station
objects crossing your sky now

SL-16 R/B DEB

Track SL-16 R/B DEB now!
10-day predictions


NORAD ID: 39707
Int'l Code: 1992-093JX
Perigee: 746.4 km
Apogee: 888.0 km
Inclination: 71.1 °
Period: 101.1 minutes
Semi major axis: 7188 km
RCS: Unknown
Launch date: December 25, 1992
Source: Commonwealth of Independent States (former USSR) (CIS)
Launch site: TYURATAM MISSILE AND SPACE COMPLEX (TTMTR)

Note: This is SATELLITE DEBRIS
Your satellite tracking list
Your tracking list is empty




NASA's NSSDC Master Catalog

Two Line Element Set (TLE):
1 39707U 92093JX  24310.45159161  .00011420  00000-0  46910-2 0  9991
2 39707  71.1123 350.2721 0098464 334.9394  24.6970 14.24532236545766
Source of the keplerian elements: AFSPC